Location: Koussan�
(15.2012°N, 12.5548°W)
Time: 18:41:21
(UTC+00:00)

Cosmos 1626 Rocket - Pass Details

Date: 20 October 2020
Orbit: 602 x 632 km, 82.5° (Epoch: 30 November)

Event Time Altitude Azimuth Distance (km) Brightness Sun altitude
Rises 18:49:34 0° 355° (N) 2,896 7.0 -6.3°
Reaches altitude 10° 18:51:48 10° 355° (N) 1,985 6.1 -6.8°
Maximum altitude 18:56:12 88° 272° (W) 620 3.6 -7.9°
Drops below altitude 10° 19:00:34 10° 177° (S) 1,963 6.2 -8.9°
Sets 19:02:46 0° 177° (S) 2,862 7.0 -9.4°
